Find Starlink 33859

NORAD ID: 63640 Int'l Des: 2025-083 Owner: SPXS Country: US Constellation: starlink operational
LEOCIRCULAR

Live-Position

3D-Globus wird geladen...

Über Starlink 33859

Beschreibung wird geladen...

Nächste Überflüge

Passes for default location (London). Set your location on the main map for personalized predictions.

Höhenverlauf

Loading altitude history...

Zweizeiliger Elementsatz

1 63640U 25083G 26124.79900740 .00022068 00000-0 80792-3 0 9995
2 63640 43.0007 48.7201 0001512 270.4639 89.6040 15.27626329 58640
Epoch: 4. Mai 2026 • Age: 10 hours

Aktueller Status

Höhe 484.3 km
Geschwindigkeit 7.63 km/s
Subsatellitenpunkt 30.58°N, 150.43°E
Startdatum 25. Apr. 2025
Alter 1 years
Typ internet

Technische Details

Klassifizierung Payload
Masse 575.00 kg
Trockenmasse 530.00 kg
Gesamtmasse 575.00 kg
Länge 0.30 m
Durchmesser 4.10 m
Spannweite 29.00 m
Form Box + pan
Hersteller SPXS
Bus-Typ Starlink V2MO
Phasenstatus In Orbit
Besitzer/Staat SPXS/US

Most Searched